User: anonymous   Login
Location: Unspecified
(0.0000°N, 0.0000°E)
Time: 17:20:56
(UTC+01:00)
Language:

CZ-2C R/B - Orbit

View from above orbital plane
View from above orbital plane
View from above satellite
View from above satellite

Ground track
Ground track

The orbit data is extracted from the following two-line orbital elements,

1 28480U 04046B   15028.48776328  .00000204  00000-0  93872-4 0  5408
2 28480 098.1168 172.5150 0141208 275.5279 123.2421 14.25429257530184
Epoch (UTC): 28 January 2015 11:42:22
Eccentricity: 0.0141208
inclination: 98.1168°
perigee height: 705 km
apogee height: 908 km
right ascension of ascending node: 172.5150°
argument of perigee: 275.5279°
revolutions per day: 14.25429257
mean anomaly at epoch: 123.2421°
orbit number at epoch: 53018

The dashed part of the orbit path shows where the satellite is in the earth's shadow,  

DLR